QPF
0.00 0.00 0.00 0.00 0.00 0.00 0.00 0.00 0.00 0.00 0.00 0.00 0.01 0.00 0.00 0.00 0.00 0.00 0.00 0.00 0.00 0.00 0.00 0.00 0.00 0.00 0.00 0.00 0.00 0.00 0.00 0.00 0.00 0.00 0.00 0.00 0.00 0.00 0.00 0.00 0.00 0.00 0.00 0.00 0.00
0.00 0.00 0.00 0.00 0.00 0.00 0.00 0.00 0.00 0.01 0.00 0.01 0.00 0.00 0.00 0.00 0.00 0.00 0.00 0.00 0.00 0.00 0.00 0.00 0.00 0.00 0.00 0.00 0.00 0.00 0.00 0.00 0.00 0.00 0.00 0.00 0.00 0.00 0.00 0.00 0.00 0.00 0.00 0.00 0.00
0.00 0.00 0.00 0.00 0.00 0.00 0.00 0.00 0.00 0.00 0.00 0.00 0.00 0.00 0.00 0.00 0.00 0.01 0.02 0.00 0.00 0.00 0.00 0.00 0.00 0.00 0.00 0.00 0.00 0.00 0.00 0.00 0.00 0.00 0.00 0.00 0.00 0.00 0.00 0.00 0.00 0.00 0.00 0.00 0.00
0.00 0.00 0.00 0.00 0.00 0.00 0.00 0.00 0.00 0.00 0.00 0.00 0.00 0.00 0.00 0.00 0.00 0.00 0.00 0.00 0.00 0.00 0.00 0.00 0.00 0.00 0.00 0.00 0.00 0.00 0.00 0.00 0.00 0.00 0.00 0.00 0.00 0.00 0.00 0.00 0.00 0.00 0.00 0.00 0.00
0.00 0.00 0.00 0.00 0.00 0.00 0.00 0.00 0.00 0.00 0.00 0.00 0.00 0.00 0.00 0.00 0.00 0.00 0.00 0.00 0.00 0.00 0.00 0.00 0.00 0.00 0.00 0.00 0.00 0.00 0.00 0.00 0.00 0.00 0.00 0.00 0.00 0.00 0.00 0.00 0.00 0.00 0.00 0.00 0.00
0.00 0.00 0.00 0.00 0.00 0.00 0.00 0.00 0.00 0.00 0.00 0.00 0.00 0.00 0.00 0.00 0.00 0.00 0.00 0.00 0.00 0.00 0.00 0.00 0.00 0.00 0.00 0.00 0.00 0.00 0.00 0.00 0.00 0.00 0.00 0.00 0.00 0.00 0.00 0.00 0.00 0.00 0.00 0.00 0.00
0.00 0.00 0.00 0.00 0.00 0.00 0.00 0.00 0.00 0.00 0.00 0.00 0.00 0.00 0.00 0.00 0.00 0.00 0.00 0.00 0.00 0.00 0.00 0.00 0.00 0.00 0.00 0.00 0.00 0.00 0.00 0.00 0.00 0.00 0.00 0.00 0.00 0.00 0.00 0.00 0.00 0.00 0.00 0.00 0.00
0.00 0.00 0.00 0.00 0.00 0.00 0.00 0.00 0.00 0.00 0.00 0.00 0.00 0.00 0.00 0.00 0.00 0.00 0.00 0.00 0.00 0.00 0.00 0.00 0.00 0.00 0.00 0.00 0.00 0.00 0.00 0.00 0.00 0.00 0.00 0.00 0.00 0.00 0.00 0.00 0.00 0.00 0.00 0.00 0.00
0.00 0.00 0.00 0.00 0.00 0.00 0.00 0.00 0.00 0.00 0.00 0.00 0.00 0.00 0.00 0.00 0.00 0.00 0.00 0.00 0.00 0.00 0.00 0.00 0.00 0.00 0.00 0.00 0.00 0.00 0.00 0.00 0.00 0.00 0.00 0.00 0.00 0.00 0.00 0.00 0.00 0.00 0.00 0.00 0.00
0.00 0.00 0.00 0.00 0.00 0.00 0.00 0.00 0.00 0.00 0.00 0.00 0.00 0.00 0.00 0.00 0.00 0.00 0.00 0.00 0.00 0.00 0.00 0.00 0.00 0.00 0.00 0.00 0.00 0.00 0.00 0.00 0.00 0.00 0.00 0.00 0.00 0.00 0.00 0.00 0.00 0.00 0.00 0.00 0.00
0.00 0.00 0.00 0.00 0.00 0.00 0.00 0.00 0.00 0.00 0.00 0.00 0.00 0.00 0.00 0.00 0.00 0.00 0.00 0.00 0.00 0.00 0.00 0.00 0.00 0.00 0.00 0.00 0.00 0.00 0.00 0.00 0.00 0.00 0.00 0.00 0.00 0.00 0.00 0.00 0.00 0.00 0.00 0.00 0.00
0.00 0.00 0.00 0.00 0.00 0.00 0.00 0.00 0.00 0.00 0.00 0.00 0.00 0.00 0.00 0.00 0.00 0.00 0.00 0.00 0.00 0.00 0.00 0.00 0.00 0.00 0.00 0.00 0.00 0.00 0.00 0.00 0.00 0.00 0.00 0.00 0.00 0.00 0.00 0.00 0.00 0.00 0.00 0.00 0.00
0.00 0.00 0.00 0.00 0.00 0.00 0.00 0.00 0.00 0.00 0.00 0.00 0.00 0.00 0.00 0.00 0.00 0.00 0.00 0.00 0.00 0.00 0.00 0.00 0.00 0.00 0.00 0.00 0.00 0.00 0.00 0.00 0.00 0.00 0.00 0.00 0.00 0.00 0.00 0.00 0.00 0.00 0.00 0.00 0.00
0.00 0.00 0.00 0.00 0.00 0.00 0.00 0.00 0.00 0.00 0.00 0.00 0.00 0.00 0.00 0.00 0.00 0.00 0.00 0.00 0.00 0.00 0.00 0.00 0.00 0.00 0.00 0.00 0.00 0.00 0.00 0.00 0.00 0.00 0.00 0.00 0.00 0.00 0.00 0.00 0.00 0.00 0.00 0.00 0.00
0.00 0.00 0.00 0.00 0.00 0.00 0.00 0.00 0.00 0.00 0.00 0.00 0.00 0.00 0.00 0.00 0.00 0.00 0.00 0.00 0.00 0.00 0.00 0.00 0.00 0.00 0.00 0.00 0.00 0.00 0.00 0.00 0.00 0.00 0.00 0.00 0.00 0.00 0.00 0.00 0.00 0.00 0.00 0.00 0.00
0.00 0.00 0.00 0.00 0.00 0.00 0.00 0.00 0.00 0.00 0.00 0.00 0.00 0.00 0.00 0.00 0.00 0.00 0.00 0.00 0.00 0.00 0.00 0.00 0.00 0.00 0.00 0.00 0.00 0.00 0.00 0.00 0.00 0.00 0.00 0.00 0.00 0.00 0.00 0.00 0.00 0.00 0.00 0.00 0.00
0.00 0.00 0.00 0.00 0.00 0.00 0.00 0.00 0.00 0.00 0.00 0.00 0.00 0.00 0.00 0.00 0.00 0.00 0.00 0.00 0.00 0.00 0.00 0.00 0.00 0.00 0.00 0.00 0.00 0.00 0.00 0.00 0.00 0.00 0.00 0.00 0.00 0.00 0.00 0.00 0.00 0.00 0.00 0.00 0.00
0.00 0.00 0.00 0.00 0.00 0.00 0.00 0.00 0.00 0.00 0.00 0.00 0.00 0.00 0.00 0.00 0.00 0.00 0.00 0.00 0.00 0.00 0.00 0.00 0.00 0.00 0.00 0.00 0.00 0.00 0.00 0.00 0.00 0.00 0.00 0.00 0.00 0.00 0.00 0.00 0.00 0.00 0.00 0.00 0.00
0.00 0.00 0.00 0.00 0.00 0.00 0.00 0.00 0.00 0.00 0.00 0.00 0.00 0.00 0.00 0.00 0.00 0.00 0.00 0.00 0.00 0.00 0.00 0.00 0.00 0.00 0.00 0.00 0.00 0.00 0.00 0.00 0.00 0.00 0.00 0.00 0.00 0.00 0.00 0.00 0.00 0.00 0.00 0.00 0.00
0.00 0.00 0.00 0.00 0.00 0.00 0.00 0.00 0.00 0.00 0.00 0.00 0.00 0.00 0.00 0.00 0.00 0.00 0.00 0.00 0.00 0.00 0.00 0.00 0.00 0.00 0.00 0.00 0.00 0.00 0.00 0.00 0.00 0.00 0.00 0.00 0.00 0.00 0.00 0.00 0.00 0.00 0.00 0.00 0.00
0.00 0.00 0.00 0.00 0.00 0.00 0.00 0.00 0.00 0.00 0.00 0.00 0.00 0.00 0.00 0.00 0.00 0.00 0.00 0.00 0.00 0.00 0.00 0.00 0.00 0.00 0.00 0.00 0.00 0.00 0.00 0.00 0.00 0.00 0.01 0.00 0.00 0.00 0.00 0.00 0.00 0.00 0.00 0.00 0.00
0.00 0.00 0.00 0.00 0.00 0.00 0.00 0.00 0.00 0.00 0.00 0.00 0.00 0.00 0.00 0.00 0.00 0.00 0.00 0.00 0.00 0.00 0.00 0.00 0.00 0.00 0.00 0.00 0.00 0.00 0.00 0.00 0.00 0.00 0.00 0.00 0.00 0.00 0.00 0.00 0.00 0.00 0.00 0.00 0.00
0.00 0.00 0.00 0.00 0.00 0.00 0.00 0.00 0.00 0.00 0.00 0.00 0.00 0.00 0.00 0.00 0.00 0.00 0.00 0.00 0.00 0.00 0.00 0.00 0.00 0.00 0.00 0.00 0.00 0.00 0.00 0.00 0.00 0.00 0.00 0.01 0.00 0.00 0.00 0.00 0.00 0.00 0.00 0.00 0.00
0.00 0.00 0.00 0.00 0.00 0.00 0.00 0.00 0.00 0.00 0.00 0.00 0.00 0.00 0.00 0.00 0.00 0.00 0.00 0.00 0.00 0.00 0.00 0.00 0.00 0.00 0.00 0.00 0.00 0.00 0.00 0.00 0.00 0.03 0.01 0.00 0.00 0.00 0.00 0.00 0.00 0.00 0.00 0.00 0.00
0.00 0.00 0.00 0.00 0.00 0.00 0.00 0.00 0.00 0.00 0.00 0.00 0.00 0.00 0.00 0.00 0.00 0.00 0.00 0.00 0.00 0.00 0.00 0.00 0.02 0.00 0.00 0.00 0.00 0.00 0.00 0.00 0.00 0.00 0.02 0.00 0.00 0.00 0.00 0.00 0.00 0.00 0.00 0.00 0.00
0.00 0.00 0.00 0.00 0.00 0.00 0.01 0.00 0.00 0.00 0.00 0.00 0.00 0.00 0.00 0.00 0.00 0.00 0.00 0.00 0.00 0.00 0.00 0.00 0.00 0.00 0.01 0.00 0.00 0.00 0.00 0.00 0.00 0.00 0.00 0.00 0.00 0.00 0.00 0.00 0.00 0.00 0.00 0.00 0.00
0.00 0.00 0.00 0.01 0.00 0.00 0.00 0.00 0.00 0.00 0.00 0.00 0.00 0.00 0.00 0.00 0.00 0.00 0.00 0.00 0.00 0.00 0.00 0.00 0.00 0.01 0.01 0.00 0.00 0.00 0.00 0.00 0.00 0.00 0.00 0.00 0.00 0.00 0.00 0.00 0.00 0.00 0.00 0.00 0.00
MSLP
1017.68 1017.30 1016.85 1016.38 1015.93 1015.54 1015.13 1014.78 1014.54 1014.20 1014.09 1013.86 1013.65 1013.59 1013.52 1013.50 1013.31 1013.31 1013.13 1013.03 1012.81 1012.74 1012.67 1012.53 1012.33 1012.34 1012.29 1012.44 1012.23 1012.64 1013.69 1013.67 1013.26 1013.18 1012.80 1012.49 1012.60 1012.02 1012.27 1012.27 1012.03 1011.55 1011.38 1010.82 1010.19
1017.63 1017.22 1016.84 1016.42 1015.95 1015.41 1015.00 1014.70 1014.35 1013.98 1013.81 1013.64 1013.60 1013.51 1013.48 1013.45 1013.37 1013.19 1012.88 1012.75 1012.95 1012.91 1012.87 1012.75 1013.00 1013.01 1013.04 1012.75 1012.84 1013.40 1014.00 1013.53 1013.13 1013.32 1013.33 1013.18 1013.23 1013.08 1012.97 1012.69 1012.20 1011.78 1011.12 1010.41 1009.83
1017.68 1017.28 1016.85 1016.36 1015.94 1015.54 1015.08 1014.66 1014.34 1014.04 1013.80 1013.67 1013.54 1013.46 1013.38 1013.32 1013.39 1013.77 1013.34 1013.18 1013.14 1012.99 1012.99 1013.18 1013.47 1013.60 1013.64 1013.46 1013.61 1013.77 1013.98 1013.85 1013.23 1013.27 1013.41 1013.46 1013.34 1013.25 1013.18 1012.86 1012.50 1011.91 1011.18 1010.61 1010.10
1017.65 1017.24 1016.80 1016.36 1015.89 1015.51 1015.22 1014.78 1014.34 1014.02 1013.79 1013.61 1013.47 1013.39 1013.25 1013.14 1013.89 1014.01 1013.76 1013.53 1013.28 1013.06 1013.27 1013.67 1013.97 1014.20 1014.23 1014.22 1014.16 1014.43 1014.15 1014.19 1013.86 1013.73 1013.79 1013.70 1013.51 1013.31 1013.09 1012.56 1011.84 1011.38 1010.89 1010.47 1010.08
1017.60 1017.25 1016.83 1016.37 1015.89 1015.51 1015.16 1014.75 1014.33 1013.96 1013.75 1013.56 1013.36 1013.39 1013.27 1013.45 1014.16 1014.09 1013.94 1013.77 1013.72 1013.67 1013.71 1013.92 1014.22 1014.37 1014.49 1014.59 1014.69 1014.71 1014.61 1014.41 1014.16 1013.84 1013.71 1013.62 1013.43 1013.21 1012.63 1011.77 1011.21 1010.85 1010.41 1010.15 1009.78
1017.66 1017.32 1016.82 1016.34 1015.87 1015.47 1015.10 1014.65 1014.24 1014.01 1013.79 1013.45 1013.16 1013.42 1013.41 1013.99 1013.95 1013.95 1013.89 1013.86 1013.78 1013.79 1013.86 1013.98 1014.38 1014.42 1014.75 1014.96 1015.20 1015.08 1014.94 1014.49 1014.05 1013.52 1013.49 1013.21 1013.07 1012.79 1012.12 1011.53 1011.33 1010.74 1010.31 1009.83 1009.42
1017.77 1017.38 1016.82 1016.30 1015.82 1015.37 1015.03 1014.58 1014.20 1014.03 1013.87 1013.58 1013.41 1013.43 1013.52 1014.37 1013.89 1013.82 1013.78 1013.94 1013.99 1014.05 1014.15 1014.29 1014.50 1014.82 1015.07 1015.32 1015.32 1015.28 1015.41 1014.56 1013.79 1013.31 1012.98 1012.51 1012.60 1012.50 1011.83 1011.48 1011.21 1010.81 1010.74 1010.57 1010.06
1017.77 1017.34 1016.88 1016.29 1015.76 1015.34 1015.00 1014.58 1014.24 1014.05 1013.90 1013.69 1013.50 1013.52 1014.21 1014.06 1013.99 1014.00 1013.94 1014.03 1014.08 1014.15 1014.29 1014.39 1014.57 1014.95 1015.25 1015.54 1015.57 1015.72 1015.90 1015.34 1013.75 1013.19 1012.64 1012.66 1012.51 1011.96 1011.56 1011.50 1011.50 1011.31 1010.91 1010.61 1010.46
1017.72 1017.36 1016.86 1016.29 1015.73 1015.33 1014.91 1014.47 1014.20 1014.06 1013.83 1013.62 1013.66 1013.64 1014.40 1014.22 1014.20 1014.21 1014.15 1014.33 1014.27 1014.36 1014.44 1014.49 1014.82 1015.27 1015.61 1016.04 1016.30 1016.04 1016.25 1015.67 1014.65 1013.48 1013.09 1012.96 1012.58 1011.81 1011.37 1011.22 1011.40 1010.75 1010.61 1010.62 1010.39
1017.71 1017.42 1017.04 1016.33 1015.68 1015.14 1014.53 1014.23 1014.15 1014.21 1013.87 1013.49 1013.42 1014.02 1014.47 1014.53 1014.40 1014.44 1014.41 1014.43 1014.56 1014.58 1014.84 1015.04 1015.31 1015.63 1015.92 1016.41 1016.58 1016.50 1016.37 1015.87 1015.34 1013.95 1013.39 1013.01 1012.60 1011.99 1011.14 1011.13 1011.02 1010.65 1010.51 1010.66 1010.58
1017.68 1017.43 1017.06 1016.49 1015.76 1015.06 1014.39 1014.39 1015.08 1015.15 1014.52 1014.48 1014.40 1014.28 1014.33 1014.58 1014.49 1014.62 1014.49 1014.66 1014.77 1015.05 1015.35 1015.28 1015.75 1015.88 1015.62 1015.66 1015.68 1016.01 1016.16 1015.87 1014.97 1014.03 1013.59 1013.02 1012.66 1011.88 1010.98 1010.68 1010.63 1010.56 1010.74 1010.89 1010.50
1017.76 1017.42 1017.04 1016.61 1016.05 1015.43 1015.01 1016.17 1017.32 1017.55 1016.14 1014.74 1014.47 1014.53 1014.58 1014.63 1014.69 1014.70 1014.71 1015.14 1015.19 1015.34 1015.30 1015.71 1015.44 1015.02 1014.92 1015.12 1015.43 1015.79 1015.95 1015.66 1014.83 1014.18 1013.86 1013.15 1012.58 1011.52 1010.82 1010.34 1010.49 1010.56 1010.65 1010.62 1010.60
1017.80 1017.44 1017.02 1016.62 1016.17 1016.31 1016.55 1017.16 1017.22 1017.27 1016.67 1015.35 1014.73 1014.61 1014.75 1014.88 1014.73 1014.80 1015.01 1015.02 1015.18 1015.46 1015.42 1015.62 1014.83 1014.44 1014.60 1014.91 1015.34 1015.58 1015.86 1015.77 1015.58 1014.84 1014.33 1013.51 1012.35 1011.40 1010.43 1010.08 1010.44 1010.28 1010.26 1010.51 1010.46
1017.75 1017.44 1017.03 1016.49 1016.45 1016.41 1017.07 1017.30 1017.16 1017.14 1016.72 1015.88 1014.95 1014.80 1014.78 1014.72 1014.80 1014.61 1014.78 1015.30 1015.35 1015.48 1015.37 1015.26 1014.50 1014.41 1014.56 1014.92 1015.27 1015.54 1015.58 1015.81 1015.92 1016.06 1015.94 1015.08 1013.79 1012.22 1010.84 1010.47 1010.39 1010.36 1010.39 1010.45 1010.34
1017.64 1017.45 1017.01 1016.63 1017.01 1017.12 1017.60 1017.25 1017.14 1017.16 1016.47 1015.63 1014.85 1014.56 1014.49 1014.94 1014.83 1014.86 1014.86 1015.22 1015.60 1015.70 1016.24 1015.59 1014.88 1014.69 1014.75 1014.83 1015.18 1015.59 1015.73 1016.27 1016.55 1016.84 1017.01 1015.31 1015.32 1012.41 1011.15 1010.79 1010.78 1010.62 1010.35 1010.44 1010.31
1017.56 1017.52 1016.94 1017.03 1017.20 1017.53 1017.38 1017.37 1017.40 1017.10 1016.75 1015.41 1014.81 1014.62 1014.82 1014.69 1014.69 1014.97 1015.22 1015.50 1015.68 1016.08 1015.89 1015.70 1015.02 1014.88 1014.53 1014.75 1015.21 1015.62 1016.34 1016.73 1016.81 1017.64 1018.21 1016.71 1015.91 1013.25 1011.61 1010.93 1010.58 1010.33 1010.73 1010.67 1010.38
1017.37 1017.53 1017.07 1017.12 1017.45 1017.33 1017.43 1017.75 1017.76 1016.70 1016.24 1015.66 1015.06 1014.84 1014.93 1014.91 1014.87 1015.13 1015.54 1016.07 1016.35 1016.71 1016.67 1016.29 1015.26 1014.62 1014.71 1015.18 1015.46 1016.36 1017.81 1018.70 1019.17 1019.18 1018.24 1016.81 1015.80 1013.37 1011.62 1010.77 1010.63 1010.89 1010.67 1010.56 1010.29
1017.23 1017.40 1017.36 1017.04 1017.29 1017.22 1017.59 1017.91 1017.58 1017.09 1016.12 1015.49 1015.12 1015.06 1015.28 1015.16 1015.52 1015.77 1015.92 1016.13 1015.90 1016.67 1017.32 1017.42 1016.28 1015.56 1015.32 1015.53 1016.36 1017.34 1018.61 1020.35 1020.85 1020.30 1018.72 1017.56 1015.78 1013.33 1011.69 1010.99 1010.74 1010.57 1010.59 1010.56 1010.30
1017.05 1017.45 1017.51 1017.32 1017.11 1017.42 1017.69 1017.92 1017.49 1016.84 1016.42 1016.10 1015.43 1015.51 1015.54 1015.88 1016.36 1016.60 1016.51 1016.51 1016.22 1016.58 1017.91 1018.53 1017.55 1016.27 1015.90 1015.94 1016.66 1017.65 1018.70 1019.33 1020.64 1020.68 1019.81 1017.26 1014.92 1012.62 1011.47 1011.23 1011.03 1010.77 1010.66 1010.46 1010.02
1017.32 1017.33 1017.51 1017.22 1017.08 1017.59 1017.78 1017.61 1017.11 1016.61 1016.45 1016.41 1016.52 1016.04 1016.30 1016.58 1017.12 1017.38 1017.11 1016.52 1016.55 1016.88 1017.47 1018.78 1018.73 1017.38 1016.75 1016.46 1016.71 1017.36 1018.46 1019.93 1021.55 1021.97 1020.47 1017.35 1015.24 1013.14 1012.13 1011.74 1011.40 1011.05 1010.74 1010.61 1010.16
1017.27 1017.53 1017.45 1017.18 1017.28 1017.78 1017.88 1017.36 1016.75 1016.53 1016.46 1016.73 1016.86 1016.96 1017.05 1017.28 1017.58 1017.87 1017.44 1016.73 1016.54 1017.33 1017.91 1019.04 1019.81 1018.91 1018.00 1017.44 1017.54 1018.21 1019.01 1020.19 1021.34 1021.69 1020.71 1018.04 1014.43 1012.40 1011.77 1011.82 1011.59 1011.35 1010.73 1010.46 1010.04
1017.15 1017.76 1017.44 1017.40 1018.01 1018.10 1018.04 1017.13 1016.89 1016.60 1016.73 1016.88 1017.15 1017.44 1017.66 1017.79 1017.95 1018.17 1017.73 1016.95 1016.79 1017.30 1018.36 1019.07 1019.79 1020.15 1019.23 1017.58 1017.96 1018.48 1019.49 1020.54 1021.64 1021.28 1020.41 1018.72 1013.23 1012.22 1012.09 1011.75 1011.28 1010.89 1010.52 1010.07 1009.69
1016.99 1017.32 1017.34 1017.51 1018.09 1018.23 1017.65 1017.28 1017.08 1016.87 1016.95 1017.25 1017.21 1017.30 1017.60 1018.18 1018.51 1018.13 1017.67 1017.09 1017.08 1017.64 1018.33 1019.19 1020.03 1020.84 1019.88 1019.10 1018.83 1019.16 1019.63 1020.36 1020.75 1020.63 1018.81 1018.54 1013.83 1011.73 1011.95 1011.46 1011.15 1010.77 1010.29 1009.88 1009.76
1016.95 1017.48 1017.79 1018.05 1017.79 1017.61 1017.62 1017.22 1017.14 1017.00 1017.15 1017.17 1017.28 1017.57 1018.09 1018.25 1018.17 1018.07 1017.63 1017.17 1017.18 1017.58 1018.17 1018.99 1019.84 1020.34 1020.32 1019.76 1019.83 1019.92 1019.61 1019.69 1020.14 1019.48 1017.18 1015.56 1013.55 1012.84 1011.87 1011.26 1010.86 1010.46 1010.03 1009.70 1009.63
1016.29 1016.71 1016.66 1017.66 1017.69 1017.54 1017.29 1017.16 1017.24 1017.30 1017.32 1017.40 1017.60 1017.53 1018.07 1018.67 1018.41 1017.92 1017.60 1017.62 1017.53 1017.71 1018.08 1018.95 1019.46 1019.87 1019.70 1019.48 1019.42 1019.05 1018.61 1018.35 1018.35 1017.33 1017.06 1013.85 1013.69 1012.32 1011.63 1011.07 1010.51 1010.03 1009.69 1009.73 1009.51
1015.58 1016.40 1016.72 1016.85 1016.94 1017.23 1017.30 1017.13 1016.83 1016.88 1017.22 1017.23 1017.29 1016.92 1017.54 1017.92 1017.48 1017.39 1017.54 1017.89 1017.99 1017.84 1018.31 1019.06 1019.09 1019.37 1019.20 1019.01 1018.57 1017.77 1016.56 1016.21 1015.94 1015.35 1014.74 1013.89 1012.74 1011.95 1011.46 1010.83 1010.20 1009.70 1009.43 1009.54 1009.60
1014.66 1015.02 1015.18 1016.08 1016.68 1017.02 1016.34 1015.66 1015.73 1016.17 1016.14 1015.69 1016.18 1016.91 1017.09 1016.74 1016.92 1016.94 1017.27 1017.59 1017.79 1018.21 1018.91 1019.38 1019.61 1019.89 1018.46 1018.16 1017.99 1016.55 1014.54 1014.25 1014.12 1013.65 1013.28 1013.20 1012.57 1012.03 1011.50 1010.92 1010.23 1009.53 1009.16 1009.12 1009.44
Thickness
5663 5663 5665 5666 5668 5669 5670 5671 5671 5672 5672 5672 5672 5672 5672 5672 5674 5673 5671 5672 5672 5674 5675 5675 5676 5675 5676 5672 5676 5672 5647 5646 5659 5660 5664 5669 5663 5671 5668 5663 5665 5668 5665 5672 5681
5659 5661 5662 5663 5664 5665 5666 5666 5667 5668 5667 5667 5666 5666 5665 5665 5666 5664 5669 5668 5666 5666 5667 5665 5660 5662 5657 5663 5661 5650 5637 5648 5658 5654 5650 5654 5650 5651 5650 5649 5652 5656 5661 5666 5669
5654 5655 5657 5658 5659 5660 5661 5662 5662 5662 5662 5661 5660 5660 5659 5659 5658 5652 5658 5658 5658 5659 5659 5657 5653 5650 5647 5650 5649 5643 5635 5644 5648 5648 5644 5641 5641 5643 5638 5638 5641 5644 5652 5655 5655
5652 5653 5655 5656 5657 5657 5657 5657 5657 5658 5657 5656 5656 5655 5656 5656 5650 5646 5647 5649 5651 5652 5650 5645 5642 5638 5637 5635 5638 5627 5635 5635 5636 5636 5633 5630 5634 5631 5630 5634 5640 5639 5640 5640 5639
5649 5650 5651 5652 5653 5653 5653 5654 5654 5654 5653 5652 5652 5650 5651 5647 5638 5640 5640 5641 5641 5641 5639 5636 5631 5630 5628 5627 5626 5623 5624 5626 5626 5626 5625 5625 5621 5619 5623 5631 5633 5631 5631 5628 5626
5645 5646 5647 5648 5650 5650 5650 5651 5651 5650 5648 5648 5648 5645 5645 5632 5636 5635 5634 5634 5634 5632 5630 5629 5623 5624 5620 5618 5615 5616 5615 5617 5619 5620 5618 5617 5614 5615 5616 5617 5614 5617 5615 5614 5610
5641 5642 5644 5645 5646 5647 5647 5647 5647 5646 5644 5643 5642 5641 5635 5625 5632 5630 5629 5627 5625 5623 5619 5619 5616 5612 5610 5606 5609 5610 5600 5607 5612 5614 5611 5616 5606 5598 5602 5602 5601 5601 5591 5586 5581
5637 5638 5640 5642 5643 5644 5644 5643 5642 5641 5639 5638 5637 5634 5622 5627 5625 5623 5621 5618 5617 5616 5613 5612 5609 5605 5603 5601 5600 5595 5593 5590 5606 5605 5606 5600 5579 5592 5592 5585 5580 5577 5568 5563 5553
5633 5634 5636 5638 5640 5640 5640 5640 5638 5635 5634 5633 5631 5628 5615 5620 5617 5615 5614 5609 5609 5607 5605 5606 5601 5596 5593 5581 5566 5586 5560 5580 5584 5593 5589 5585 5569 5581 5579 5576 5567 5564 5554 5548 5539
5630 5630 5630 5633 5636 5637 5638 5637 5634 5630 5629 5630 5628 5619 5613 5610 5610 5608 5607 5604 5600 5599 5594 5591 5586 5578 5573 5559 5546 5571 5556 5566 5556 5578 5577 5569 5562 5564 5568 5561 5555 5549 5540 5527 5521
5624 5625 5625 5628 5631 5633 5636 5632 5622 5622 5621 5614 5612 5612 5610 5607 5606 5602 5602 5597 5593 5589 5579 5582 5568 5562 5570 5573 5581 5574 5561 5550 5561 5569 5563 5557 5548 5555 5557 5551 5543 5532 5519 5511 5506
5618 5620 5621 5622 5624 5627 5628 5612 5598 5597 5603 5613 5611 5606 5604 5603 5598 5596 5595 5586 5583 5576 5579 5573 5562 5580 5581 5578 5571 5562 5547 5542 5554 5561 5553 5544 5544 5547 5540 5538 5525 5514 5507 5500 5492
5611 5613 5615 5617 5619 5616 5610 5602 5599 5597 5594 5606 5606 5603 5598 5596 5593 5588 5586 5583 5578 5570 5572 5563 5574 5580 5575 5566 5558 5552 5541 5537 5534 5540 5540 5532 5526 5535 5533 5526 5513 5503 5500 5490 5480
5605 5606 5608 5612 5611 5609 5601 5597 5595 5592 5586 5599 5598 5596 5594 5592 5585 5588 5583 5574 5571 5568 5569 5564 5574 5570 5563 5555 5550 5533 5546 5537 5530 5511 5480 5511 5471 5515 5520 5503 5497 5487 5477 5473 5465
5598 5598 5600 5601 5598 5594 5591 5591 5589 5584 5583 5600 5594 5594 5592 5583 5582 5575 5575 5568 5560 5560 5555 5546 5563 5561 5551 5549 5545 5532 5536 5524 5518 5503 5482 5504 5453 5481 5497 5501 5483 5470 5468 5461 5457
5592 5590 5593 5591 5589 5586 5584 5583 5580 5577 5557 5591 5590 5588 5582 5579 5578 5569 5563 5560 5557 5551 5552 5544 5552 5550 5545 5543 5536 5530 5520 5511 5504 5485 5405 5467 5469 5471 5488 5490 5474 5467 5445 5445 5442
5587 5583 5585 5582 5578 5579 5577 5571 5568 5565 5591 5585 5583 5584 5578 5575 5573 5566 5558 5543 5537 5522 5524 5533 5546 5549 5542 5530 5523 5503 5469 5419 5422 5406 5421 5475 5458 5456 5479 5476 5467 5447 5440 5434 5430
5580 5577 5576 5576 5574 5573 5567 5560 5561 5577 5580 5581 5579 5575 5570 5569 5563 5556 5550 5537 5547 5532 5490 5486 5508 5536 5530 5519 5505 5492 5469 5408 5412 5396 5440 5469 5446 5456 5468 5460 5456 5447 5437 5424 5417
5574 5571 5568 5569 5568 5564 5557 5540 5548 5570 5569 5562 5565 5563 5567 5558 5543 5541 5538 5531 5543 5534 5495 5452 5500 5520 5520 5512 5494 5477 5449 5461 5427 5424 5390 5427 5445 5462 5460 5448 5438 5432 5422 5414 5411
5564 5564 5560 5561 5561 5555 5541 5554 5561 5563 5557 5554 5547 5559 5553 5548 5534 5513 5517 5532 5528 5523 5505 5488 5448 5497 5504 5502 5491 5476 5468 5423 5368 5356 5386 5422 5425 5435 5435 5428 5429 5420 5411 5403 5403
5555 5548 5552 5553 5551 5542 5533 5547 5561 5552 5551 5542 5540 5536 5538 5534 5507 5508 5502 5517 5523 5507 5494 5475 5453 5468 5480 5475 5463 5450 5445 5428 5404 5388 5381 5388 5425 5440 5431 5425 5414 5404 5402 5396 5397
5546 5536 5543 5543 5531 5523 5526 5555 5540 5546 5538 5533 5526 5519 5518 5516 5496 5490 5496 5505 5509 5498 5482 5473 5433 5430 5450 5477 5470 5455 5416 5401 5384 5380 5349 5357 5425 5442 5419 5414 5407 5404 5398 5394 5396
5534 5535 5533 5530 5519 5514 5528 5540 5538 5534 5529 5521 5520 5520 5519 5508 5478 5486 5494 5503 5496 5487 5460 5465 5424 5395 5425 5438 5435 5421 5428 5392 5357 5346 5399 5356 5407 5429 5414 5405 5402 5394 5393 5386 5385
5520 5525 5520 5510 5520 5527 5517 5524 5522 5520 5519 5517 5514 5510 5501 5492 5490 5470 5489 5497 5492 5483 5482 5466 5436 5418 5415 5415 5381 5382 5374 5399 5381 5383 5400 5399 5394 5406 5403 5397 5394 5391 5387 5378 5378
5516 5519 5526 5517 5512 5508 5512 5513 5510 5500 5503 5502 5489 5492 5482 5450 5476 5474 5480 5475 5480 5480 5472 5453 5431 5424 5433 5435 5422 5416 5404 5394 5375 5388 5369 5407 5391 5397 5395 5390 5387 5387 5378 5377 5374
5507 5507 5502 5496 5508 5503 5503 5498 5500 5494 5483 5484 5479 5491 5480 5455 5473 5467 5467 5460 5451 5459 5433 5416 5428 5434 5431 5425 5416 5415 5420 5411 5401 5398 5388 5386 5388 5392 5387 5385 5383 5377 5379 5373 5366
5505 5505 5508 5500 5492 5490 5498 5506 5498 5491 5489 5499 5484 5470 5469 5475 5476 5474 5465 5459 5453 5430 5425 5411 5401 5390 5419 5421 5410 5404 5419 5415 5406 5400 5386 5376 5377 5376 5372 5376 5374 5375 5374 5369 5359